TimeEDT,TemperatureF,Dew PointF,Humidity,Sea Level PressureIn,VisibilityMPH,Wind Direction,Wind SpeedMPH,Gust SpeedMPH,PrecipitationIn,Events,Conditions,WindDirDegrees,DateUTC
12:15 AM,38.3,33.1,81,30.23,10.0,NE,3.5,-,N/A,,Overcast,40,2013-03-18 04:15:00
12:35 AM,37.9,33.1,83,30.23,10.0,NE,6.9,-,N/A,,Overcast,40,2013-03-18 04:35:00
12:55 AM,37.8,33.6,85,30.23,7.0,NE,6.9,-,N/A,,Overcast,50,2013-03-18 04:55:00
1:15 AM,37.6,34.2,87,30.23,5.0,NE,9.2,-,N/A,,Light Drizzle,50,2013-03-18 05:15:00
1:35 AM,36.9,34.2,90,30.22,3.0,NNE,5.8,-,N/A,Rain,Rain,20,2013-03-18 05:35:00
1:55 AM,36.5,34.0,91,30.22,3.0,NNE,5.8,-,N/A,,Light Drizzle,30,2013-03-18 05:55:00
2:15 AM,36.5,34.0,91,30.21,4.0,NE,6.9,-,N/A,,Overcast,40,2013-03-18 06:15:00
2:55 AM,36.5,33.8,90,30.21,7.0,NE,6.9,-,N/A,,Overcast,50,2013-03-18 06:55:00
3:15 AM,36.5,33.8,90,30.20,7.0,NE,5.8,-,N/A,,Overcast,40,2013-03-18 07:15:00
3:35 AM,36.5,33.8,90,30.19,10.0,NNE,5.8,-,N/A,,Overcast,30,2013-03-18 07:35:00
3:55 AM,36.5,33.8,90,30.19,10.0,NNE,6.9,-,N/A,,Overcast,30,2013-03-18 07:55:00
4:15 AM,36.5,33.6,89,30.19,10.0,NNE,5.8,-,N/A,,Overcast,30,2013-03-18 08:15:00
4:35 AM,36.5,33.6,89,30.19,7.0,NNE,9.2,-,N/A,,Overcast,20,2013-03-18 08:35:00
4:55 AM,36.5,33.8,90,30.19,4.0,NNE,8.1,-,N/A,,Drizzle,20,2013-03-18 08:55:00
5:15 AM,36.5,34.0,91,30.19,4.0,NNE,9.2,-,N/A,,Drizzle,20,2013-03-18 09:15:00
5:35 AM,36.5,34.0,91,30.18,3.0,NNE,6.9,-,N/A,Rain,Rain,30,2013-03-18 09:35:00
5:55 AM,36.5,34.3,92,30.19,4.0,North,6.9,-,0.01,,Drizzle,10,2013-03-18 09:55:00
6:15 AM,36.7,34.3,91,30.20,4.0,NE,6.9,-,N/A,Rain,Light Rain,40,2013-03-18 10:15:00
6:35 AM,36.7,34.3,91,30.21,5.0,NE,5.8,-,N/A,,Light Drizzle,40,2013-03-18 10:35:00
6:55 AM,36.7,34.3,91,30.21,4.0,NNE,9.2,-,N/A,Rain,Light Rain,30,2013-03-18 10:55:00
7:15 AM,36.9,34.7,92,30.22,4.0,NNE,8.1,-,N/A,,Drizzle,20,2013-03-18 11:15:00
7:35 AM,36.7,34.7,93,30.22,4.0,NE,5.8,-,N/A,,Drizzle,40,2013-03-18 11:35:00
7:55 AM,37.6,35.2,91,30.22,2.5,NNE,5.8,-,N/A,,Drizzle,30,2013-03-18 11:55:00
8:15 AM,37.6,35.6,93,30.22,2.5,NNE,6.9,-,N/A,,Drizzle,30,2013-03-18 12:15:00
8:35 AM,37.6,35.6,93,30.23,3.0,North,8.1,-,0.01,,Drizzle,10,2013-03-18 12:35:00
8:55 AM,37.6,35.6,93,30.23,3.0,NNE,5.8,-,0.01,,Drizzle,30,2013-03-18 12:55:00
9:15 AM,37.6,35.6,93,30.22,3.0,NNE,6.9,-,N/A,,Light Drizzle,30,2013-03-18 13:15:00
9:35 AM,37.6,35.2,91,30.22,3.0,NNE,4.6,-,N/A,,Light Drizzle,30,2013-03-18 13:35:00
9:55 AM,37.6,35.2,91,30.22,4.0,NE,5.8,-,N/A,,Overcast,40,2013-03-18 13:55:00
10:15 AM,37.9,35.6,91,30.19,4.0,NE,8.1,-,N/A,,Overcast,40,2013-03-18 14:15:00
10:35 AM,38.5,36.1,91,30.20,7.0,NNE,4.6,-,N/A,,Overcast,30,2013-03-18 14:35:00
10:55 AM,38.8,36.5,91,30.18,7.0,NE,5.8,-,N/A,,Overcast,50,2013-03-18 14:55:00
11:15 AM,40.1,37.8,91,30.16,7.0,NNE,6.9,-,N/A,,Overcast,30,2013-03-18 15:15:00
11:35 AM,40.1,37.8,91,30.15,7.0,ENE,5.8,-,N/A,,Overcast,70,2013-03-18 15:35:00
11:55 AM,42.3,39.7,91,30.14,10.0,East,4.6,-,N/A,,Overcast,80,2013-03-18 15:55:00
12:15 PM,42.8,40.1,90,30.14,10.0,NE,3.5,-,N/A,,Overcast,50,2013-03-18 16:15:00
12:35 PM,44.8,42.3,91,30.14,10.0,Calm,Calm,-,N/A,,Overcast,0,2013-03-18 16:35:00
12:55 PM,45.1,42.8,91,30.12,7.0,NE,3.5,-,N/A,,Overcast,50,2013-03-18 16:55:00
1:15 PM,45.1,42.8,91,30.11,4.0,NE,3.5,-,N/A,,Overcast,50,2013-03-18 17:15:00
1:35 PM,45.1,42.8,91,30.10,2.5,NNE,4.6,-,N/A,,Overcast,20,2013-03-18 17:35:00
1:55 PM,45.1,42.8,91,30.10,2.0,NNE,4.6,-,N/A,,Overcast,20,2013-03-18 17:55:00
2:15 PM,45.1,42.8,91,30.09,1.8,North,4.6,-,N/A,,Overcast,360,2013-03-18 18:15:00
2:35 PM,45.1,43.0,92,30.07,1.5,North,4.6,-,N/A,,Overcast,10,2013-03-18 18:35:00
2:55 PM,45.1,43.0,92,30.06,1.8,Calm,Calm,-,N/A,Rain,Light Rain,0,2013-03-18 18:55:00
3:15 PM,45.1,43.0,92,30.05,2.0,North,4.6,-,N/A,Rain,Light Rain,10,2013-03-18 19:15:00
3:35 PM,45.1,43.0,92,30.04,1.8,NNE,3.5,-,N/A,Rain,Light Rain,30,2013-03-18 19:35:00
3:55 PM,45.1,43.0,92,30.03,2.0,NNE,3.5,-,N/A,,Drizzle,30,2013-03-18 19:55:00
4:15 PM,45.1,43.0,92,30.02,2.5,Calm,Calm,-,N/A,,Drizzle,0,2013-03-18 20:15:00
4:35 PM,45.1,43.0,92,30.01,4.0,ENE,3.5,-,N/A,,Overcast,60,2013-03-18 20:35:00
4:55 PM,45.7,43.3,92,30.00,7.0,ENE,3.5,-,N/A,,Overcast,60,2013-03-18 20:55:00
5:15 PM,46.4,43.9,91,29.99,10.0,Calm,Calm,-,N/A,,Overcast,0,2013-03-18 21:15:00
5:35 PM,46.4,44.1,92,29.99,10.0,Calm,Calm,-,N/A,,Overcast,0,2013-03-18 21:35:00
5:55 PM,47.3,44.6,90,29.98,10.0,Calm,Calm,-,N/A,,Overcast,0,2013-03-18 21:55:00
6:15 PM,47.3,44.8,91,29.98,10.0,Calm,Calm,-,N/A,,Overcast,0,2013-03-18 22:15:00
6:35 PM,47.5,45.0,91,29.99,10.0,Calm,Calm,-,N/A,,Overcast,0,2013-03-18 22:35:00
6:55 PM,46.4,43.9,91,29.99,7.0,Calm,Calm,-,N/A,,Overcast,0,2013-03-18 22:55:00
7:15 PM,46.4,43.9,91,29.99,5.0,Calm,Calm,-,N/A,,Overcast,0,2013-03-18 23:15:00
7:35 PM,46.0,43.7,92,29.99,2.5,Calm,Calm,-,N/A,,Overcast,0,2013-03-18 23:35:00
7:55 PM,45.1,43.0,92,29.98,1.8,Calm,Calm,-,N/A,,Overcast,0,2013-03-18 23:55:00
8:35 PM,45.1,43.0,92,29.97,1.0,Calm,Calm,-,N/A,,Overcast,0,2013-03-19 00:35:00
8:55 PM,45.1,43.0,92,29.97,0.8,NNW,3.5,-,N/A,Rain,Rain,340,2013-03-19 00:55:00
9:15 PM,45.1,43.3,93,29.96,0.8,North,3.5,-,N/A,Rain,Light Rain,350,2013-03-19 01:15:00
9:35 PM,45.1,43.3,93,29.97,0.5,Calm,Calm,-,N/A,Fog,Fog,0,2013-03-19 01:35:00
9:55 PM,45.1,43.3,93,29.96,0.5,North,3.5,-,N/A,Fog,Fog,350,2013-03-19 01:55:00
10:15 PM,45.1,43.3,93,29.96,1.5,Calm,Calm,-,N/A,,Overcast,0,2013-03-19 02:15:00
10:35 PM,45.1,43.3,93,29.95,2.5,Calm,Calm,-,N/A,,Overcast,0,2013-03-19 02:35:00
10:55 PM,45.1,43.3,93,29.96,1.0,Calm,Calm,-,N/A,Rain,Rain,0,2013-03-19 02:55:00
11:15 PM,45.1,43.3,93,29.92,2.5,Calm,Calm,-,N/A,,Light Drizzle,0,2013-03-19 03:15:00
11:35 PM,45.1,43.3,93,29.91,2.0,Calm,Calm,-,N/A,,Overcast,0,2013-03-19 03:35:00
11:55 PM,45.1,43.3,93,29.90,2.5,Calm,Calm,-,N/A,Rain,Rain,0,2013-03-19 03:55:00